{"data":{"norad_id":61238,"epoch":"2026-09-22T20:26:28.787712Z","epoch_age_seconds":91481,"freshness":"FRESH","line1":"1 61238U 24174A   26265.85172208  .00002480  00000+0  11729-3 0  9998","line2":"2 61238  97.4496 272.3359 0002830  19.2090 340.9251 15.20303848110512","mean_motion":15.20303848,"eccentricity":0.000283,"inclination_deg":97.4496,"raan_deg":272.3359,"arg_perigee_deg":19.209,"mean_anomaly_deg":340.9251,"bstar":0.00011729,"rev_number":11051,"period_min":94.717907995455,"perigee_km":502.97545570682,"apogee_km":506.87126787159,"semimajor_km":6883.0603617892,"source":"CELESTRAK","updated_at":"2026-09-23T09:00:20.856627Z"}}